Hourly Data Report for August 10, 2001

SHERBROOKE A
QUEBEC

45°26'00.000" N
71°41'00.000" W
241.40 m
7028124
71610
YSC

Download Data

Hourly Data (August 2001)
Hourly Data Report for August 10, 2001
TIME
LST
Temp Definition
°C
Dew Point Definition
°C
Rel Hum Definition
%
Precip. Amount Definition
mm

Wind Dir Definition
10's deg

Wind Spd Definition
km/h
Visibility Definition
km
Stn Press Definition
kPa
Hmdx Definition


Wind Chill Definition


Weather Definition


00:00 25.8 19.7 69   19 13 12.9 97.62 33    
01:00 24.7 18.7 69   19 9 12.9 97.62 31    
02:00 24.3 18.0 68   20 11 12.9 97.57 30    
03:00 24.5 17.4 65   20 11 15.0 97.55 30    
04:00 23.9 17.4 67   21 9 15.0 97.51 29    
05:00 21.2 20.3 95   22 11 3.2 97.52 29   Moderate Rain
06:00 21.2 20.4 95   22 20 1.9 97.59 29   Heavy Rain
07:00 21.6 20.5 93   22 11 9.7 97.61 30   Fog
08:00 21.9 20.9 94   22 13 9.7 97.62 30   Rain Showers, Fog
09:00 22.1 21.1 94   21 11 4.8 97.64 31   Fog
10:00 23.3 21.3 89   22 15 9.7 97.67 32   Fog
11:00 24.1 21.1 83   22 13 12.9 97.69 33   Mostly Cloudy
12:00 26.8 20.8 70   25 20 19.3 97.67 35   Mostly Cloudy
13:00 28.1 17.5 53   24 20 19.3 97.65 34   Mainly Clear
14:00 28.0 14.6 44   27 35 24.1 97.66 32   Mainly Clear
15:00 27.5 13.0 41   27 26 24.1 97.70 30   Mainly Clear
16:00 26.2 14.3 48   28 22 24.1 97.83 30   Mainly Clear
17:00 24.9 13.0 48   26 22 15.0 97.94 28    
18:00 23.0 13.4 55   30 15 15.0 98.07 26    
19:00 21.6 13.4 60   30 11 15.0 98.19 25    
20:00 20.1 12.2 60   31 9 15.0 98.31      
21:00 19.4 11.0 58   33 13 15.0 98.44      
22:00 17.6 9.8 60   36 7 15.0 98.51      
23:00 15.5 9.7 68   3 6 15.0 98.61      

Notes on Data Quality.

Legend

  • E = Estimated
  • M = Missing
  • NA = Not Available*
  • [empty] = Indicates an unobserved value
Date modified: